SCP
0 0 0 0 0 0 0 0 0 0 0 0 0 0 0 0 0 0 0 0 0 0 0 -0 -0 0 0 0 0 -0 0 0 0 0 0 0 0 0 0 0 0 0 0 0 0 0 0 0 0 0 0 0 0 0
0 0 0 0 0 0 0 0 0 0 0 0 0 0 0 0 0 0 0 0 0 0 -0 -0 -0 -0 0 0 0 0 0 0 0 0 0 0 0 0 0 0 0 0 0 0 0 0 0 0 0 0 0 0 0 0
0 0 0 0 0 0 0 0 0 0 0 0 0 0 0 0 0 0 -0 0 -0 -0 -0 0 0 0 -0 0 0 0 0 0 0 0 0 0 0 0 0 0 0 0 0 0 0 0 0 0 0 0 0 0 0 0
0 0 0 0 0 0 0 0 0 0 0 0 0 0 0 0 0 -0 0 0 -0 0 0 0 -0 -0 0 0 0 -0 -0 0 0 0 0 0 0 0 0 0 0 0 0 0 0 0 0 0 0 0 0 0 0 0
0 0 0 0 0 0 0 0 0 0 0 0 0 0 0 0 -0 0 0 0 -0 0 0 -0 -0 -0 0 0 0 0 0 0 0 0 0 0 0 0 0 0 0 0 0 0 0 0 0 0 0 0 0 0 0 0
0 0 0 0 0 0 0 0 0 0 0 0 -0 -0 -0 -0 -0 0 0 0 0 0 0 -0 -0 0 0 0 -0 0 0 0 0 0 0 0 0 0 0 0 0 0 0 0 0 0 0 0 0 0 0 0 0 0
0 0 0 0 0 0 0 0 0 0 0 0 -0 -0 -0 -0 0 0 0 0 0 -0 -0 0 0 -0 0 0 0 0 0 0 0 0 0 0 0 0 0 0 0 0 0 0 0 0 0 0 0 0 0 0 0 0
0 0 0 0 0 0 0 0 0 0 0 -0 -0 -0 -0 -0 -0 0 0 -0 -0 -0 0 0 0 0 0 0 0 0 0 0 0 0 0 0 0 0 0 0 0 0 0 0 0 0 0 0 0 0 0 0 0 0
0 0 0 0 0 0 0 0 0 0 -0 -0 -0 -0 -0 -0 0 0 0 -0 -0 0 0 0 0 0 0 0 0 0 0 0 -0 0 0 0 0 0 0 0 0 0 0 0 0 0 0 0 0 0 0 0 0 0
0 0 0 0 0 0 0 0 0 -0 -0 -0 0 -0 -0 0 -0 -0 0 -0 -0 -0 -0 0 -0 0 0 0 0 0 0 0 0 0 0 0 0 0 0 0 0 0 0 0 0 0 0 0 0 0 0 0 0 -0
0 0 0 0 0 0 0 0 0 -0 -0 -0 -0 -0 0 -0 0 0 0 0 -0 0 -0 0 -0 0 -0 0 0 0 0 0 0 0 0 0 0 0 0 0 0 0 0 0 0 0 0 0 0 0 0 0 -0 -0
0 0 0 -0 -0 -0 0 0 -0 0 0 -0 0 0 0 0 0 0 0 0 -0 0 -0 -0 -0 0 0 0 0 0 0 0 0 0 0 0 0 0 0 0 0 0 0 0 0 0 0 0 0 0 -0 -0 -0 -0
0 0 -0 -0 -0 -0 -0 -0 -0 -0 -0 -0 0 0 0 0 0 0 0 -0 -0 -0 0 -0 -0 0 0 0 0 0 0 0 0 0 0 0 -0 0 0 0 0 0 0 0 0 0 0 0 -0 0 -0 -0 -0 -0
0 0 -0 -0 -0 -0 -0 -0 -0 -0 -0 0 0 0 0 0 0 0 0 0 0 0 -0 -0 0 0 0 0 0 0 0 0 0 0 0 -0 0 0 0 0 0 0 0 0 0 0 0 0 0 0 -0 -0 -0 -0
-0 -0 0 -0 -0 -0 -0 -0 -0 -0 0 0 0 0 0 0 0 0 0 0 0 0 -0 0 0 0 0 0 0 0 0 0 0 0 0 0 -0 0 0 0 0 0 0 0 0 0 0 0 0 0 -0 -0 -0 0
-0 -0 0 -0 -0 -0 -0 -0 -0 -0 -0 -0 -0 -0 -0 -0 -0 0 0 0 0 0 0 0 0 0 0 0 0 0 0 0 0 0 -0 -0 -0 0 0 0 0 0 0 0 0 0 0 -0 0 -0 -0 0 0 0
-0 0 0 -0 -0 -0 -0 0 -0 -0 -0 -0 -0 -0 0 0 -0 0 0 0 0 0 0 0 0 0 0 0 0 0 0 0 0 0 0 0 0 0 0 0 0 -0 0 -0 -0 0 0 0 0 -0 -0 0 0 0
0 0 -0 -0 -0 -0 0 -0 -0 0 -0 -0 0 0 0 0 0 0 0 0 0 0 0 0 0 0 0 0 0 0 0 -0 0 0 0 0 0 0 -0 0 -0 -0 -0 -0 -0 -0 -0 0 0 -0 -0 -0 0 0
-0 -0 -0 -0 0 0 0 0 0 0 0 0 0 0 0 0 0 0 0 0 0 0 0 0 0 0 0 0 -0 0 -0 -0 -0 -0 -0 -0 -0 -0 -0 -0 -0 -0 -0 -0 -0 -0 -0 0 -0 -0 -0 -0 -0 0
-0 -0 -0 0 0 0 0 0 0 0 0 0 0 0 0 0 0 -0 0 0 0 0 0 0 0 0 -0 0 0 -0 -0 -0 -0 -0 -0 -0 -0 -0 -0 -0 -0 -0 -0 -0 -0 0 0 0 -0 -0 -0 -0 -0 -0
-0 0 0 0 0 0 0 0 0 0 0 0 0 0 0 0 0 -0 -0 0 0 0 0 0 0 -0 -0 -0 -0 0 -0 0 0 0 0 -0 -0 -0 0 -0 -0 -0 -0 -0 -0 0 0 0 0 -0 -0 -0 -0 -0
0 0 0 0 0 0 0 0 0 0 0 0 0 0 0 0 0 0 0 0 0 0 0 0 0 -0 -0 -0 -0 0 -0 -0 0 0 0 -0 -0 -0 -0 -0 -0 -0 -0 -0 -0 0 0 0 0 -0 -0 -0 -0 -0
0 0 0 0 0 0 0 0 0 0 0 0 0 0 0 0 0 0 0 0 0 -0 0 0 0 0 0 -0 -0 -0 0 -0 -0 -0 -0 -0 -0 -0 -0 -0 -0 -0 -0 -0 -0 -0 -0 -0 -0 0 -0 -0 -0 -0
0 0 0 0 0 0 0 0 0 0 0 0 0 0 0 0 0 0 0 0 0 0 0 0 0 0 0 -0 -0 -0 -0 0 0 -0 -0 0 -0 -0 -0 -0 -0 -0 -0 -0 -0 -0 -0 -0 -0 -0 -0 0 -0 -0
0 0 0 0 0 0 0 0 0 0 0 0 0 0 0 0 0 0 0 0 0 0 0 0 0 0 0 0 0 0 -0 -0 0 -0 -0 -0 -0 -0 -0 -0 -0 -0 -0 -0 -0 -0 -0 -0 -0 -0 0 0 -0 -0
0 0 0 0 0 0 0 0 0 0 0 0 0 0 0 0 0 0 0 0 0 0 0 0 0 0 0 0 0 0 0 0 0 0 0 0 0 0 -0 -0 -0 -0 -0 -0 -0 -0 -0 -0 -0 -0 -0 -0 0 0
0 0 0 0 0 0 0 0 0 0 0 0 0 0 0 0 0 0 0 0 0 0 0 0 0 0 0 0 0 0 0 0 0 0 0 -0 -0 -0 -0 0 -0 -0 -0 -0 -0 -0 -0 -0 -0 0 0 0 0 0
0 0 0 0 0 0 0 0 0 0 0 0 0 0 0 0 0 0 0 0 0 0 0 0 0 0 0 0 0 0 0 0 0 0 0 0 0 -0 -0 -0 0 -0 -0 -0 -0 -0 -0 -0 0 0 0 0 0 0
0 0 0 0 0 0 0 0 0 0 0 0 0 0 0 0 0 0 0 0 0 0 0 0 0 0 0 0 0 0 0 0 0 0 0 0 0 0 0 0 0 0 0 -0 -0 -0 -0 -0 -0 0 0 0 0 0
0 0 0 0 0 0 0 0 0 0 0 0 0 0 0 -0 0 0 0 0 0 0 0 0 0 0 0 0 0 0 0 0 0 0 0 0 0 0 0 0 0 0 0 0 0 -0 -0 -0 -0 0 0 0 0 0
0 0 0 0 0 0 0 0 0 0 0 0 0 0 0 0 -0 0 0 0 0 0 0 0 0 0 0 0 0 0 0 0 0 0 0 0 0 0 0 0 0 0 0 0 0 0 0 0 0 0 0 0 0 0
-0 0 0 0 0 0 0 0 0 0 0 0 0 0 0 0 0 0 0 0 0 0 0 0 0 0 0 0 0 0 0 0 0 0 0 0 0 0 0 0 0 0 0 0 0 0 0 0 0 0 0 0 0 0
-0 0 0 0 0 0 0 0 0 0 0 0 0 0 0 0 0 0 0 0 0 0 0 0 0 0 0 0 0 0 0 0 0 0 0 0 0 0 0 0 0 0 0 0 0 0 0 0 0 0 0 0 0 0
Wind_Speed_500mb
38 41 42 44 45 45 46 47 50 50 43 43 42 40 39 39 34 35 47 31 34 22 49 51 42 32 37 25 9 11 15 6 1 2 5 8 7 8 11 13 15 9 9 7 6 8 9 3 8 7 9 16 30 18
39 41 42 44 45 44 45 46 48 48 46 43 42 42 40 40 34 35 52 29 29 29 40 57 57 46 40 33 22 10 12 6 9 6 9 4 9 7 6 6 9 9 2 5 11 2 15 26 29 23 31 23 17 19
40 42 43 43 44 44 44 45 49 49 48 46 44 42 41 41 39 40 46 35 35 27 39 34 32 27 20 23 22 11 12 11 15 20 11 7 9 6 3 6 8 11 16 3 5 14 15 30 24 24 19 17 8 6
40 44 42 41 44 45 44 46 47 47 49 49 46 44 42 42 43 44 38 32 27 9 10 18 29 23 19 16 23 30 8 17 20 23 12 9 8 11 7 8 5 5 7 2 3 15 22 17 23 17 13 9 5 9
41 43 42 42 44 46 46 45 46 49 51 49 47 46 44 41 45 43 37 30 27 17 7 22 45 20 17 11 7 8 6 10 10 5 5 4 7 10 5 7 5 6 9 7 4 16 20 17 13 11 10 12 14 16
41 42 43 43 44 46 47 43 45 49 52 50 48 45 37 39 39 39 9 16 16 28 7 6 16 12 13 3 10 10 8 5 1 2 1 4 11 10 5 6 16 11 14 18 11 18 18 11 13 11 12 13 14 15
41 40 42 44 46 46 46 41 47 52 51 51 47 39 34 34 37 32 12 12 10 8 6 7 8 6 9 9 6 14 5 4 4 3 3 2 4 6 3 5 7 11 13 14 15 8 11 7 11 10 12 13 16 19
40 41 43 44 44 45 41 41 44 49 51 51 46 39 33 32 35 27 23 16 13 6 6 6 4 6 6 3 4 7 4 6 6 4 6 4 8 9 6 13 10 20 16 14 14 12 10 7 8 16 18 26 26 32
39 41 41 39 39 43 41 35 42 47 48 48 37 30 19 6 8 10 6 6 5 9 5 7 4 2 8 4 4 7 9 3 8 6 6 9 6 6 4 8 15 16 12 11 7 9 9 11 20 21 26 30 35 33
40 39 38 37 40 40 30 35 42 46 46 29 19 9 6 4 6 3 3 4 5 7 10 8 15 7 13 13 12 9 10 4 4 6 12 6 7 16 16 23 22 13 7 5 3 14 18 22 19 23 26 30 26 24
37 35 35 37 36 32 32 34 42 42 32 15 15 7 20 3 3 4 5 8 9 7 13 14 6 4 6 4 4 10 4 5 4 7 8 4 5 16 23 24 23 17 19 24 29 27 23 21 19 17 25 26 24 19
33 31 30 35 32 31 28 32 36 35 31 20 21 15 7 5 5 7 6 6 10 5 6 5 5 3 3 4 2 4 3 2 2 7 4 4 9 25 26 26 24 25 26 27 25 25 24 25 20 17 26 27 24 19
32 26 31 32 31 28 24 29 26 28 21 8 5 4 4 4 6 10 11 8 6 9 6 7 6 4 7 9 1 5 4 3 5 5 2 3 26 24 29 24 28 27 26 25 26 25 25 25 23 21 28 32 26 22
33 27 30 30 29 21 23 27 28 20 9 5 4 5 6 6 4 5 9 5 13 9 6 9 8 3 8 9 4 4 4 4 4 5 4 12 24 29 23 25 29 27 23 23 24 23 23 22 24 23 26 30 31 23
33 28 26 21 20 28 28 22 18 8 5 5 5 5 4 12 25 19 17 9 9 10 15 6 6 9 7 5 5 3 5 6 4 4 6 27 33 28 25 28 28 25 21 21 21 20 21 20 22 20 21 23 33 30
24 21 5 21 31 29 25 14 9 7 5 5 7 8 11 18 15 14 15 14 9 12 9 9 5 6 8 4 7 6 4 5 2 4 25 35 31 26 29 29 24 23 21 20 20 20 20 19 20 21 22 22 26 34
14 13 28 36 29 20 14 10 5 5 6 6 9 12 16 17 26 27 11 12 10 10 5 7 8 4 2 5 4 1 4 6 14 30 37 31 28 28 32 28 24 24 22 22 22 20 21 20 17 17 21 21 26 29
20 24 33 37 28 13 8 6 5 6 8 12 7 18 17 23 12 13 5 4 2 6 9 6 14 4 3 1 4 6 5 13 15 18 32 32 29 29 31 27 25 24 23 22 22 20 18 15 15 14 14 20 16 19
22 28 24 14 9 11 6 4 6 6 10 11 15 15 17 16 16 5 2 1 7 13 14 11 5 4 4 7 13 10 15 17 25 30 38 32 30 29 29 27 26 25 23 21 19 17 17 16 15 13 14 14 17 16
21 18 7 7 7 6 6 6 6 7 10 8 20 16 16 17 8 11 6 2 6 5 8 2 3 8 16 18 14 10 22 24 29 29 29 26 27 31 30 28 27 26 23 21 19 20 18 17 15 15 15 16 16 18
9 7 7 11 10 10 8 8 6 8 12 14 16 14 21 12 4 7 5 5 4 6 2 7 9 19 22 22 15 15 25 20 23 23 24 30 28 28 30 27 26 24 20 18 16 16 13 14 14 13 13 15 21 22
7 14 7 8 5 7 10 10 7 9 8 14 22 19 15 11 8 7 8 6 6 9 6 1 6 10 15 15 13 12 19 23 19 16 12 30 29 30 29 26 24 25 21 18 19 17 15 16 16 15 18 18 15 15
10 7 6 8 5 6 11 8 7 6 6 6 9 7 10 5 6 14 7 10 5 8 9 5 2 4 5 15 14 13 18 19 17 17 20 22 28 27 26 23 21 20 19 17 16 20 19 19 19 18 13 13 15 18
7 6 7 5 10 8 6 9 8 6 6 6 6 7 3 4 9 9 5 6 3 8 6 5 8 10 14 14 13 17 18 15 15 17 19 20 26 25 23 23 20 18 17 19 20 20 18 18 18 16 15 14 13 12
5 8 9 9 8 7 8 8 10 8 7 9 8 9 7 10 4 4 4 10 8 16 13 6 7 1 3 12 16 18 18 17 15 18 17 18 20 23 24 23 22 24 22 21 20 19 19 18 17 15 12 12 13 12
7 12 12 8 10 10 7 6 10 13 6 6 10 5 2 1 5 2 6 13 12 11 15 18 17 11 15 9 7 14 17 17 13 18 19 18 21 24 27 27 25 25 24 23 22 20 21 16 18 16 12 14 17 13
7 10 14 14 11 12 9 10 13 9 9 7 3 4 3 5 5 7 9 13 8 6 3 7 12 11 12 7 7 3 13 18 14 14 20 32 14 20 22 24 24 24 27 24 23 22 22 21 20 17 14 13 13 11
12 9 11 11 16 16 14 9 5 5 5 3 4 6 4 5 5 4 3 4 6 7 6 5 7 9 7 7 9 5 10 15 14 12 19 20 16 16 15 18 18 27 26 26 22 21 19 19 20 20 18 16 13 12
11 12 14 17 18 10 12 10 6 2 8 7 6 4 3 5 5 7 7 4 5 6 4 4 6 8 10 6 5 7 10 17 15 14 30 22 17 16 14 15 23 25 26 29 29 23 22 21 21 20 19 18 16 14
18 19 11 15 15 10 5 8 4 7 4 3 7 9 6 1 1 1 2 6 7 7 7 8 8 12 13 9 6 5 12 17 22 20 25 26 19 21 25 23 22 26 28 31 37 35 31 30 28 27 21 19 17 14
6 17 16 20 17 11 12 13 8 6 4 0 6 8 6 5 1 1 3 4 6 7 6 5 5 9 8 8 10 12 7 4 9 17 25 18 25 17 22 27 28 32 32 31 33 32 30 25 24 23 22 20 19 16
10 10 13 18 20 11 12 9 10 10 7 13 6 6 3 1 3 4 6 5 3 4 7 6 8 8 7 5 8 3 2 5 5 6 9 23 33 24 23 29 32 35 36 33 30 30 30 27 26 24 23 22 19 19
22 17 17 16 12 13 14 7 4 5 9 5 5 10 9 6 3 9 2 4 4 3 5 10 12 14 18 20 21 23 20 12 20 15 18 29 31 29 31 34 34 35 32 29 29 29 30 28 27 26 25 23 22 20
Wind_Direction_500mb
310 315 316 317 317 318 322 329 330 331 323 317 316 316 318 318 312 310 304 298 280 282 284 284 292 317 309 316 325 10 286 228 242 157 20 309 92 318 85 142 149 139 164 198 229 194 236 152 116 351 94 75 85 86
309 312 313 315 316 315 317 322 327 328 324 320 316 310 311 318 312 307 306 296 293 262 271 288 285 284 280 275 290 297 299 357 297 321 246 61 313 155 20 119 155 170 202 187 181 210 126 84 88 75 86 99 96 110
308 309 312 314 316 314 314 318 322 323 322 315 316 312 310 315 311 304 298 290 293 280 294 279 294 281 272 267 271 255 314 349 297 347 314 337 53 306 41 97 170 186 129 157 218 48 82 90 99 97 95 99 74 18
309 309 312 315 317 317 313 312 317 320 322 321 310 310 309 310 308 303 292 282 278 267 289 290 325 300 290 265 255 233 253 317 308 313 324 312 14 337 9 71 297 153 237 172 176 165 155 99 99 103 94 70 12 340
306 307 311 315 317 319 315 312 315 317 321 324 312 307 309 310 309 298 290 269 254 227 270 289 305 290 259 241 236 199 228 304 326 329 305 317 42 346 323 6 348 8 31 209 58 59 91 104 97 73 47 25 5 354
305 310 312 313 318 319 318 315 316 319 321 318 311 307 307 313 302 310 308 175 216 242 269 295 314 277 250 145 128 207 185 254 232 318 28 354 15 322 315 301 22 19 55 25 91 72 103 104 76 59 38 24 7 342
308 310 311 314 317 320 318 314 316 321 323 319 314 305 297 312 308 283 288 329 357 274 253 299 276 217 192 193 220 215 199 116 132 126 217 276 117 249 292 247 17 52 76 95 94 109 99 75 69 48 38 3 347 331
308 310 313 316 320 321 319 317 321 325 326 323 320 307 296 305 296 278 264 263 311 219 253 264 273 221 190 227 197 195 232 147 215 203 165 187 156 212 245 211 137 123 123 120 97 88 76 98 83 50 20 14 355 335
307 311 316 320 326 324 320 321 324 328 327 324 318 317 307 300 279 225 196 221 247 221 274 277 241 160 163 322 226 177 171 210 225 178 184 192 211 226 294 158 127 129 134 132 114 85 98 82 52 26 19 3 345 333
305 309 312 314 318 318 321 326 328 326 333 330 339 350 349 227 334 25 141 194 221 212 232 251 166 236 163 219 206 197 195 218 188 170 134 223 239 85 103 110 127 108 139 126 140 68 51 49 43 24 22 357 347 338
305 307 311 314 318 315 321 329 333 334 351 346 340 348 330 18 308 253 221 218 191 224 214 252 247 155 174 186 216 183 235 200 208 179 148 259 145 114 113 115 114 110 100 89 85 81 77 69 49 38 20 8 0 355
307 308 310 316 316 314 318 333 337 339 327 303 306 309 360 326 293 262 231 176 226 256 194 235 178 208 150 155 259 251 285 279 306 125 195 178 120 126 125 117 119 113 105 97 96 94 87 69 58 51 31 22 14 10
307 306 308 313 313 314 321 336 339 330 323 313 315 306 292 237 256 238 204 198 207 175 167 192 172 133 194 214 254 244 275 260 159 196 127 71 143 138 125 131 122 114 107 104 98 96 89 74 60 50 29 19 26 32
309 306 310 305 309 315 323 325 331 330 319 295 295 284 249 240 277 302 2 12 326 316 198 190 158 176 210 212 174 264 240 179 242 211 98 149 148 133 140 136 130 119 113 105 101 105 95 79 66 55 34 19 34 50
312 311 309 312 325 329 322 318 329 307 280 276 263 266 268 311 305 339 313 287 294 265 293 150 211 205 198 191 202 290 256 236 54 111 137 142 145 146 147 140 130 128 119 105 106 108 103 91 75 67 57 31 35 57
314 327 311 313 318 318 316 311 305 292 263 257 243 274 302 303 320 325 312 293 287 281 302 243 256 217 199 198 193 226 284 67 315 108 138 146 148 151 138 131 139 129 119 110 111 114 113 104 89 80 72 62 44 46
307 274 310 308 315 313 307 288 286 255 265 249 236 255 269 267 263 278 257 251 282 281 261 267 232 161 138 179 203 114 47 115 137 132 144 144 141 134 132 138 134 130 124 119 116 115 112 107 101 86 79 70 57 56
304 297 299 303 318 339 304 239 241 252 249 255 260 275 252 261 269 303 227 214 301 267 285 308 296 255 254 328 98 104 130 142 149 142 144 147 140 138 144 146 144 137 131 126 122 121 120 114 99 97 80 77 80 49
301 293 291 287 311 325 281 248 241 269 268 293 276 275 271 287 281 214 116 283 288 272 293 298 289 21 53 100 106 109 135 138 147 155 142 149 147 145 148 149 146 142 136 132 129 125 123 115 107 99 104 92 84 79
308 303 281 200 266 285 268 252 241 254 279 307 297 285 283 276 261 215 191 303 345 258 235 290 38 49 95 103 96 79 132 144 140 136 143 151 146 145 154 155 153 149 141 136 127 123 119 111 106 115 120 112 101 90
322 300 259 226 243 246 276 293 245 245 285 278 287 280 277 265 199 227 210 206 346 292 270 101 284 72 71 74 73 117 146 145 147 158 168 152 154 159 162 158 156 160 156 151 148 154 143 132 125 115 105 99 94 91
303 311 244 215 253 238 255 244 266 283 270 277 281 266 272 263 232 204 192 198 258 267 252 359 37 82 116 102 91 134 149 150 155 157 155 147 159 165 172 168 173 177 170 169 159 153 145 142 140 132 120 114 111 107
309 296 255 244 243 254 265 236 254 231 259 256 277 250 235 230 210 175 213 231 191 202 192 204 138 122 107 118 105 126 149 153 162 167 165 177 168 169 177 173 177 179 173 161 158 154 155 157 145 147 129 105 90 102
254 255 264 241 218 255 247 221 230 234 259 267 256 256 241 219 198 219 211 130 77 141 153 235 263 208 141 131 141 145 160 163 159 162 175 185 171 169 173 173 167 172 167 157 161 161 166 155 160 146 142 140 134 124
222 237 218 259 238 242 231 197 212 217 253 219 266 272 176 209 210 245 143 110 319 44 47 5 121 115 105 174 179 169 170 173 174 171 180 180 177 176 178 174 169 164 165 164 167 165 165 167 161 163 160 151 136 133
250 216 197 234 198 222 245 229 209 217 192 231 235 249 52 241 244 102 62 72 61 45 36 33 28 34 54 46 163 166 175 184 178 180 184 187 184 187 186 181 177 171 172 170 169 172 171 173 171 164 156 161 151 136
256 247 225 249 260 259 279 277 263 259 216 222 329 326 297 260 54 58 66 51 47 32 339 345 351 10 20 31 47 115 183 178 189 203 214 184 186 190 195 196 187 191 182 178 170 173 173 174 172 173 163 155 153 150
253 276 236 238 230 260 267 273 268 244 153 105 79 24 25 22 38 45 354 284 322 326 318 302 313 317 309 344 1 316 169 163 177 151 167 201 208 199 215 206 199 190 175 191 174 169 173 176 175 172 167 161 155 152
241 248 279 252 237 231 242 243 271 338 134 159 142 132 162 189 292 321 330 261 285 319 328 329 353 357 345 292 293 243 214 177 185 196 186 182 186 202 177 173 157 165 175 175 166 170 172 172 171 169 165 163 162 152
247 200 235 241 228 236 254 335 4 105 124 163 121 141 160 249 338 353 349 353 8 353 333 327 331 341 348 346 328 213 225 217 211 201 199 204 191 191 192 190 181 179 169 172 174 175 178 178 176 167 159 162 163 159
264 207 237 258 272 299 299 287 285 266 230 198 148 160 125 162 209 359 348 332 312 310 309 321 344 356 33 14 7 353 262 186 216 215 211 211 208 190 189 182 180 173 169 172 171 174 177 168 169 168 171 168 170 162
237 250 253 267 273 300 304 312 290 269 229 219 181 140 161 174 154 146 8 344 353 35 358 323 273 297 285 338 298 20 347 280 268 217 237 192 185 180 182 186 186 178 174 168 169 173 172 171 172 173 173 175 165 169
210 230 262 279 283 277 268 255 280 292 286 289 309 194 174 181 165 186 110 8 189 22 338 293 294 282 276 265 260 246 242 256 256 244 222 209 196 187 185 184 185 186 172 172 177 179 176 177 173 172 171 167 166 163
Wind_Speed_850mb
38 41 42 44 45 45 46 47 50 50 43 43 42 40 39 39 34 35 47 31 34 22 49 51 42 32 37 25 9 11 15 6 1 2 5 8 7 8 11 13 15 9 9 7 6 8 9 3 8 7 9 16 30 18
39 41 42 44 45 44 45 46 48 48 46 43 42 42 40 40 34 35 52 29 29 29 40 57 57 46 40 33 22 10 12 6 9 6 9 4 9 7 6 6 9 9 2 5 11 2 15 26 29 23 31 23 17 19
40 42 43 43 44 44 44 45 49 49 48 46 44 42 41 41 39 40 46 35 35 27 39 34 32 27 20 23 22 11 12 11 15 20 11 7 9 6 3 6 8 11 16 3 5 14 15 30 24 24 19 17 8 6
40 44 42 41 44 45 44 46 47 47 49 49 46 44 42 42 43 44 38 32 27 9 10 18 29 23 19 16 23 30 8 17 20 23 12 9 8 11 7 8 5 5 7 2 3 15 22 17 23 17 13 9 5 9
41 43 42 42 44 46 46 45 46 49 51 49 47 46 44 41 45 43 37 30 27 17 7 22 45 20 17 11 7 8 6 10 10 5 5 4 7 10 5 7 5 6 9 7 4 16 20 17 13 11 10 12 14 16
41 42 43 43 44 46 47 43 45 49 52 50 48 45 37 39 39 39 9 16 16 28 7 6 16 12 13 3 10 10 8 5 1 2 1 4 11 10 5 6 16 11 14 18 11 18 18 11 13 11 12 13 14 15
41 40 42 44 46 46 46 41 47 52 51 51 47 39 34 34 37 32 12 12 10 8 6 7 8 6 9 9 6 14 5 4 4 3 3 2 4 6 3 5 7 11 13 14 15 8 11 7 11 10 12 13 16 19
40 41 43 44 44 45 41 41 44 49 51 51 46 39 33 32 35 27 23 16 13 6 6 6 4 6 6 3 4 7 4 6 6 4 6 4 8 9 6 13 10 20 16 14 14 12 10 7 8 16 18 26 26 32
39 41 41 39 39 43 41 35 42 47 48 48 37 30 19 6 8 10 6 6 5 9 5 7 4 2 8 4 4 7 9 3 8 6 6 9 6 6 4 8 15 16 12 11 7 9 9 11 20 21 26 30 35 33
40 39 38 37 40 40 30 35 42 46 46 29 19 9 6 4 6 3 3 4 5 7 10 8 15 7 13 13 12 9 10 4 4 6 12 6 7 16 16 23 22 13 7 5 3 14 18 22 19 23 26 30 26 24
37 35 35 37 36 32 32 34 42 42 32 15 15 7 20 3 3 4 5 8 9 7 13 14 6 4 6 4 4 10 4 5 4 7 8 4 5 16 23 24 23 17 19 24 29 27 23 21 19 17 25 26 24 19
33 31 30 35 32 31 28 32 36 35 31 20 21 15 7 5 5 7 6 6 10 5 6 5 5 3 3 4 2 4 3 2 2 7 4 4 9 25 26 26 24 25 26 27 25 25 24 25 20 17 26 27 24 19
32 26 31 32 31 28 24 29 26 28 21 8 5 4 4 4 6 10 11 8 6 9 6 7 6 4 7 9 1 5 4 3 5 5 2 3 26 24 29 24 28 27 26 25 26 25 25 25 23 21 28 32 26 22
33 27 30 30 29 21 23 27 28 20 9 5 4 5 6 6 4 5 9 5 13 9 6 9 8 3 8 9 4 4 4 4 4 5 4 12 24 29 23 25 29 27 23 23 24 23 23 22 24 23 26 30 31 23
33 28 26 21 20 28 28 22 18 8 5 5 5 5 4 12 25 19 17 9 9 10 15 6 6 9 7 5 5 3 5 6 4 4 6 27 33 28 25 28 28 25 21 21 21 20 21 20 22 20 21 23 33 30
24 21 5 21 31 29 25 14 9 7 5 5 7 8 11 18 15 14 15 14 9 12 9 9 5 6 8 4 7 6 4 5 2 4 25 35 31 26 29 29 24 23 21 20 20 20 20 19 20 21 22 22 26 34
14 13 28 36 29 20 14 10 5 5 6 6 9 12 16 17 26 27 11 12 10 10 5 7 8 4 2 5 4 1 4 6 14 30 37 31 28 28 32 28 24 24 22 22 22 20 21 20 17 17 21 21 26 29
20 24 33 37 28 13 8 6 5 6 8 12 7 18 17 23 12 13 5 4 2 6 9 6 14 4 3 1 4 6 5 13 15 18 32 32 29 29 31 27 25 24 23 22 22 20 18 15 15 14 14 20 16 19
22 28 24 14 9 11 6 4 6 6 10 11 15 15 17 16 16 5 2 1 7 13 14 11 5 4 4 7 13 10 15 17 25 30 38 32 30 29 29 27 26 25 23 21 19 17 17 16 15 13 14 14 17 16
21 18 7 7 7 6 6 6 6 7 10 8 20 16 16 17 8 11 6 2 6 5 8 2 3 8 16 18 14 10 22 24 29 29 29 26 27 31 30 28 27 26 23 21 19 20 18 17 15 15 15 16 16 18
9 7 7 11 10 10 8 8 6 8 12 14 16 14 21 12 4 7 5 5 4 6 2 7 9 19 22 22 15 15 25 20 23 23 24 30 28 28 30 27 26 24 20 18 16 16 13 14 14 13 13 15 21 22
7 14 7 8 5 7 10 10 7 9 8 14 22 19 15 11 8 7 8 6 6 9 6 1 6 10 15 15 13 12 19 23 19 16 12 30 29 30 29 26 24 25 21 18 19 17 15 16 16 15 18 18 15 15
10 7 6 8 5 6 11 8 7 6 6 6 9 7 10 5 6 14 7 10 5 8 9 5 2 4 5 15 14 13 18 19 17 17 20 22 28 27 26 23 21 20 19 17 16 20 19 19 19 18 13 13 15 18
7 6 7 5 10 8 6 9 8 6 6 6 6 7 3 4 9 9 5 6 3 8 6 5 8 10 14 14 13 17 18 15 15 17 19 20 26 25 23 23 20 18 17 19 20 20 18 18 18 16 15 14 13 12
5 8 9 9 8 7 8 8 10 8 7 9 8 9 7 10 4 4 4 10 8 16 13 6 7 1 3 12 16 18 18 17 15 18 17 18 20 23 24 23 22 24 22 21 20 19 19 18 17 15 12 12 13 12
7 12 12 8 10 10 7 6 10 13 6 6 10 5 2 1 5 2 6 13 12 11 15 18 17 11 15 9 7 14 17 17 13 18 19 18 21 24 27 27 25 25 24 23 22 20 21 16 18 16 12 14 17 13
7 10 14 14 11 12 9 10 13 9 9 7 3 4 3 5 5 7 9 13 8 6 3 7 12 11 12 7 7 3 13 18 14 14 20 32 14 20 22 24 24 24 27 24 23 22 22 21 20 17 14 13 13 11
12 9 11 11 16 16 14 9 5 5 5 3 4 6 4 5 5 4 3 4 6 7 6 5 7 9 7 7 9 5 10 15 14 12 19 20 16 16 15 18 18 27 26 26 22 21 19 19 20 20 18 16 13 12
11 12 14 17 18 10 12 10 6 2 8 7 6 4 3 5 5 7 7 4 5 6 4 4 6 8 10 6 5 7 10 17 15 14 30 22 17 16 14 15 23 25 26 29 29 23 22 21 21 20 19 18 16 14
18 19 11 15 15 10 5 8 4 7 4 3 7 9 6 1 1 1 2 6 7 7 7 8 8 12 13 9 6 5 12 17 22 20 25 26 19 21 25 23 22 26 28 31 37 35 31 30 28 27 21 19 17 14
6 17 16 20 17 11 12 13 8 6 4 0 6 8 6 5 1 1 3 4 6 7 6 5 5 9 8 8 10 12 7 4 9 17 25 18 25 17 22 27 28 32 32 31 33 32 30 25 24 23 22 20 19 16
10 10 13 18 20 11 12 9 10 10 7 13 6 6 3 1 3 4 6 5 3 4 7 6 8 8 7 5 8 3 2 5 5 6 9 23 33 24 23 29 32 35 36 33 30 30 30 27 26 24 23 22 19 19
22 17 17 16 12 13 14 7 4 5 9 5 5 10 9 6 3 9 2 4 4 3 5 10 12 14 18 20 21 23 20 12 20 15 18 29 31 29 31 34 34 35 32 29 29 29 30 28 27 26 25 23 22 20
Wind_Direction_850mb
310 315 316 317 317 318 322 329 330 331 323 317 316 316 318 318 312 310 304 298 280 282 284 284 292 317 309 316 325 10 286 228 242 157 20 309 92 318 85 142 149 139 164 198 229 194 236 152 116 351 94 75 85 86
309 312 313 315 316 315 317 322 327 328 324 320 316 310 311 318 312 307 306 296 293 262 271 288 285 284 280 275 290 297 299 357 297 321 246 61 313 155 20 119 155 170 202 187 181 210 126 84 88 75 86 99 96 110
308 309 312 314 316 314 314 318 322 323 322 315 316 312 310 315 311 304 298 290 293 280 294 279 294 281 272 267 271 255 314 349 297 347 314 337 53 306 41 97 170 186 129 157 218 48 82 90 99 97 95 99 74 18
309 309 312 315 317 317 313 312 317 320 322 321 310 310 309 310 308 303 292 282 278 267 289 290 325 300 290 265 255 233 253 317 308 313 324 312 14 337 9 71 297 153 237 172 176 165 155 99 99 103 94 70 12 340
306 307 311 315 317 319 315 312 315 317 321 324 312 307 309 310 309 298 290 269 254 227 270 289 305 290 259 241 236 199 228 304 326 329 305 317 42 346 323 6 348 8 31 209 58 59 91 104 97 73 47 25 5 354
305 310 312 313 318 319 318 315 316 319 321 318 311 307 307 313 302 310 308 175 216 242 269 295 314 277 250 145 128 207 185 254 232 318 28 354 15 322 315 301 22 19 55 25 91 72 103 104 76 59 38 24 7 342
308 310 311 314 317 320 318 314 316 321 323 319 314 305 297 312 308 283 288 329 357 274 253 299 276 217 192 193 220 215 199 116 132 126 217 276 117 249 292 247 17 52 76 95 94 109 99 75 69 48 38 3 347 331
308 310 313 316 320 321 319 317 321 325 326 323 320 307 296 305 296 278 264 263 311 219 253 264 273 221 190 227 197 195 232 147 215 203 165 187 156 212 245 211 137 123 123 120 97 88 76 98 83 50 20 14 355 335
307 311 316 320 326 324 320 321 324 328 327 324 318 317 307 300 279 225 196 221 247 221 274 277 241 160 163 322 226 177 171 210 225 178 184 192 211 226 294 158 127 129 134 132 114 85 98 82 52 26 19 3 345 333
305 309 312 314 318 318 321 326 328 326 333 330 339 350 349 227 334 25 141 194 221 212 232 251 166 236 163 219 206 197 195 218 188 170 134 223 239 85 103 110 127 108 139 126 140 68 51 49 43 24 22 357 347 338
305 307 311 314 318 315 321 329 333 334 351 346 340 348 330 18 308 253 221 218 191 224 214 252 247 155 174 186 216 183 235 200 208 179 148 259 145 114 113 115 114 110 100 89 85 81 77 69 49 38 20 8 0 355
307 308 310 316 316 314 318 333 337 339 327 303 306 309 360 326 293 262 231 176 226 256 194 235 178 208 150 155 259 251 285 279 306 125 195 178 120 126 125 117 119 113 105 97 96 94 87 69 58 51 31 22 14 10
307 306 308 313 313 314 321 336 339 330 323 313 315 306 292 237 256 238 204 198 207 175 167 192 172 133 194 214 254 244 275 260 159 196 127 71 143 138 125 131 122 114 107 104 98 96 89 74 60 50 29 19 26 32
309 306 310 305 309 315 323 325 331 330 319 295 295 284 249 240 277 302 2 12 326 316 198 190 158 176 210 212 174 264 240 179 242 211 98 149 148 133 140 136 130 119 113 105 101 105 95 79 66 55 34 19 34 50
312 311 309 312 325 329 322 318 329 307 280 276 263 266 268 311 305 339 313 287 294 265 293 150 211 205 198 191 202 290 256 236 54 111 137 142 145 146 147 140 130 128 119 105 106 108 103 91 75 67 57 31 35 57
314 327 311 313 318 318 316 311 305 292 263 257 243 274 302 303 320 325 312 293 287 281 302 243 256 217 199 198 193 226 284 67 315 108 138 146 148 151 138 131 139 129 119 110 111 114 113 104 89 80 72 62 44 46
307 274 310 308 315 313 307 288 286 255 265 249 236 255 269 267 263 278 257 251 282 281 261 267 232 161 138 179 203 114 47 115 137 132 144 144 141 134 132 138 134 130 124 119 116 115 112 107 101 86 79 70 57 56
304 297 299 303 318 339 304 239 241 252 249 255 260 275 252 261 269 303 227 214 301 267 285 308 296 255 254 328 98 104 130 142 149 142 144 147 140 138 144 146 144 137 131 126 122 121 120 114 99 97 80 77 80 49
301 293 291 287 311 325 281 248 241 269 268 293 276 275 271 287 281 214 116 283 288 272 293 298 289 21 53 100 106 109 135 138 147 155 142 149 147 145 148 149 146 142 136 132 129 125 123 115 107 99 104 92 84 79
308 303 281 200 266 285 268 252 241 254 279 307 297 285 283 276 261 215 191 303 345 258 235 290 38 49 95 103 96 79 132 144 140 136 143 151 146 145 154 155 153 149 141 136 127 123 119 111 106 115 120 112 101 90
322 300 259 226 243 246 276 293 245 245 285 278 287 280 277 265 199 227 210 206 346 292 270 101 284 72 71 74 73 117 146 145 147 158 168 152 154 159 162 158 156 160 156 151 148 154 143 132 125 115 105 99 94 91
303 311 244 215 253 238 255 244 266 283 270 277 281 266 272 263 232 204 192 198 258 267 252 359 37 82 116 102 91 134 149 150 155 157 155 147 159 165 172 168 173 177 170 169 159 153 145 142 140 132 120 114 111 107
309 296 255 244 243 254 265 236 254 231 259 256 277 250 235 230 210 175 213 231 191 202 192 204 138 122 107 118 105 126 149 153 162 167 165 177 168 169 177 173 177 179 173 161 158 154 155 157 145 147 129 105 90 102
254 255 264 241 218 255 247 221 230 234 259 267 256 256 241 219 198 219 211 130 77 141 153 235 263 208 141 131 141 145 160 163 159 162 175 185 171 169 173 173 167 172 167 157 161 161 166 155 160 146 142 140 134 124
222 237 218 259 238 242 231 197 212 217 253 219 266 272 176 209 210 245 143 110 319 44 47 5 121 115 105 174 179 169 170 173 174 171 180 180 177 176 178 174 169 164 165 164 167 165 165 167 161 163 160 151 136 133
250 216 197 234 198 222 245 229 209 217 192 231 235 249 52 241 244 102 62 72 61 45 36 33 28 34 54 46 163 166 175 184 178 180 184 187 184 187 186 181 177 171 172 170 169 172 171 173 171 164 156 161 151 136
256 247 225 249 260 259 279 277 263 259 216 222 329 326 297 260 54 58 66 51 47 32 339 345 351 10 20 31 47 115 183 178 189 203 214 184 186 190 195 196 187 191 182 178 170 173 173 174 172 173 163 155 153 150
253 276 236 238 230 260 267 273 268 244 153 105 79 24 25 22 38 45 354 284 322 326 318 302 313 317 309 344 1 316 169 163 177 151 167 201 208 199 215 206 199 190 175 191 174 169 173 176 175 172 167 161 155 152
241 248 279 252 237 231 242 243 271 338 134 159 142 132 162 189 292 321 330 261 285 319 328 329 353 357 345 292 293 243 214 177 185 196 186 182 186 202 177 173 157 165 175 175 166 170 172 172 171 169 165 163 162 152
247 200 235 241 228 236 254 335 4 105 124 163 121 141 160 249 338 353 349 353 8 353 333 327 331 341 348 346 328 213 225 217 211 201 199 204 191 191 192 190 181 179 169 172 174 175 178 178 176 167 159 162 163 159
264 207 237 258 272 299 299 287 285 266 230 198 148 160 125 162 209 359 348 332 312 310 309 321 344 356 33 14 7 353 262 186 216 215 211 211 208 190 189 182 180 173 169 172 171 174 177 168 169 168 171 168 170 162
237 250 253 267 273 300 304 312 290 269 229 219 181 140 161 174 154 146 8 344 353 35 358 323 273 297 285 338 298 20 347 280 268 217 237 192 185 180 182 186 186 178 174 168 169 173 172 171 172 173 173 175 165 169
210 230 262 279 283 277 268 255 280 292 286 289 309 194 174 181 165 186 110 8 189 22 338 293 294 282 276 265 260 246 242 256 256 244 222 209 196 187 185 184 185 186 172 172 177 179 176 177 173 172 171 167 166 163